User: anonymous   Login
Location: Unspecified
(0.0000°N, 0.0000°E)
Time: 10:38:48
(UTC+00:00)
Language:

CICERO 10 - Orbit

View from above orbital plane
View from above orbital plane
View from above satellite
View from above satellite

Ground track
Ground track

The orbit data is extracted from the following two-line orbital elements,

1 43690U 18088A   19111.87584650 +.00001057 +00000-0 +47704-4 0  9992
2 43690 085.0401 356.5746 0017376 063.5099 296.7921 15.19547354024572
Epoch (UTC): 21 April 2019 21:01:13
Eccentricity: 0.0017376
inclination: 85.0401°
perigee height: 495 km
apogee height: 519 km
right ascension of ascending node: 356.5746°
argument of perigee: 63.5099°
revolutions per day: 15.19547354
mean anomaly at epoch: 296.7921°
orbit number at epoch: 2457

The dashed part of the orbit path shows where the satellite is in the earth's shadow,  

DLR